Year,Month,Day,Hour,Minute,Value (Times are PST for temperature in C)
2006,09,26,00,00,15.00
2006,09,26,00,01,15.00
2006,09,26,00,02,15.00
2006,09,26,00,03,15.00
2006,09,26,00,04,15.00
2006,09,26,00,05,15.00
2006,09,26,00,06,15.10
2006,09,26,00,07,15.10
2006,09,26,00,08,15.10
2006,09,26,00,09,15.20
2006,09,26,00,10,15.30
2006,09,26,00,11,15.30
2006,09,26,00,12,15.30
2006,09,26,00,13,15.40
2006,09,26,00,14,15.40
2006,09,26,00,15,15.50
2006,09,26,00,16,15.50
2006,09,26,00,17,15.60
2006,09,26,00,18,15.60
2006,09,26,00,19,15.60
2006,09,26,00,20,15.60
2006,09,26,00,21,15.60
2006,09,26,00,22,15.70
2006,09,26,00,23,15.70
2006,09,26,00,24,15.70
2006,09,26,00,25,15.70
2006,09,26,00,26,15.70
2006,09,26,00,27,15.70
2006,09,26,00,28,15.70
2006,09,26,00,29,15.70
2006,09,26,00,30,15.70
2006,09,26,00,31,15.70
2006,09,26,00,32,15.70
2006,09,26,00,33,15.70
2006,09,26,00,34,15.80
2006,09,26,00,35,15.80
2006,09,26,00,36,15.80
2006,09,26,00,37,15.80
2006,09,26,00,38,15.80
2006,09,26,00,39,15.70
2006,09,26,00,40,15.70
2006,09,26,00,41,15.70
2006,09,26,00,42,15.70
2006,09,26,00,43,15.60
2006,09,26,00,44,15.60
2006,09,26,00,45,15.60
2006,09,26,00,46,15.50
2006,09,26,00,47,15.50
2006,09,26,00,48,15.50
2006,09,26,00,49,15.50
2006,09,26,00,50,15.50
2006,09,26,00,51,15.50
2006,09,26,00,52,15.50
2006,09,26,00,53,15.50
2006,09,26,00,54,15.60
2006,09,26,00,55,15.60
2006,09,26,00,56,15.60
2006,09,26,00,57,15.60
2006,09,26,00,58,15.60
2006,09,26,00,59,15.60
2006,09,26,01,00,15.60
2006,09,26,01,01,15.60
2006,09,26,01,02,15.70
2006,09,26,01,03,15.70
2006,09,26,01,04,15.70
2006,09,26,01,05,15.80
2006,09,26,01,06,15.80
2006,09,26,01,07,15.80
2006,09,26,01,08,15.80
2006,09,26,01,09,15.80
2006,09,26,01,10,15.90
2006,09,26,01,11,15.90
2006,09,26,01,12,15.90
2006,09,26,01,13,15.90
2006,09,26,01,14,15.90
2006,09,26,01,15,15.90
2006,09,26,01,16,15.90
2006,09,26,01,17,15.80
2006,09,26,01,18,15.80
2006,09,26,01,19,15.80
2006,09,26,01,20,15.80
2006,09,26,01,21,15.80
2006,09,26,01,22,15.80
2006,09,26,01,23,15.70
2006,09,26,01,24,15.70
2006,09,26,01,25,15.70
2006,09,26,01,26,15.60
2006,09,26,01,27,15.60
2006,09,26,01,28,15.50
2006,09,26,01,29,15.50
2006,09,26,01,30,15.40
2006,09,26,01,31,15.30
2006,09,26,01,32,15.30
2006,09,26,01,33,15.30
2006,09,26,01,34,15.30
2006,09,26,01,35,15.30
2006,09,26,01,36,15.30
2006,09,26,01,37,15.30
2006,09,26,01,38,15.20
2006,09,26,01,39,15.20
2006,09,26,01,40,15.20
2006,09,26,01,41,15.20
2006,09,26,01,42,15.10
2006,09,26,01,43,15.10
2006,09,26,01,44,15.10
2006,09,26,01,45,15.20
2006,09,26,01,46,15.20
2006,09,26,01,47,15.20
2006,09,26,01,48,15.20
2006,09,26,01,49,15.20
2006,09,26,01,50,15.20
2006,09,26,01,51,15.30
2006,09,26,01,52,15.30
2006,09,26,01,53,15.30
2006,09,26,01,54,15.30
2006,09,26,01,55,15.30
2006,09,26,01,56,15.40
2006,09,26,01,57,15.40
2006,09,26,01,58,15.30
2006,09,26,01,59,15.30
2006,09,26,02,00,15.30
2006,09,26,02,01,15.30
2006,09,26,02,02,15.30
2006,09,26,02,03,15.20
2006,09,26,02,04,15.20
2006,09,26,02,05,15.20
2006,09,26,02,06,15.10
2006,09,26,02,07,15.10
2006,09,26,02,08,15.00
2006,09,26,02,09,15.00
2006,09,26,02,10,14.90
2006,09,26,02,11,14.90
2006,09,26,02,12,14.80
2006,09,26,02,13,14.80
2006,09,26,02,14,14.80
2006,09,26,02,15,14.80
2006,09,26,02,16,14.70
2006,09,26,02,17,14.70
2006,09,26,02,18,14.70
2006,09,26,02,19,14.60
2006,09,26,02,20,14.60
2006,09,26,02,21,14.50
2006,09,26,02,22,14.50
2006,09,26,02,23,14.40
2006,09,26,02,24,14.30
2006,09,26,02,25,14.30
2006,09,26,02,26,14.20
2006,09,26,02,27,14.20
2006,09,26,02,28,14.10
2006,09,26,02,29,14.00
2006,09,26,02,30,14.00
2006,09,26,02,31,13.90
2006,09,26,02,32,13.90
2006,09,26,02,33,13.90
2006,09,26,02,34,13.90
2006,09,26,02,35,13.90
2006,09,26,02,36,13.90
2006,09,26,02,37,13.90
2006,09,26,02,38,13.90
2006,09,26,02,39,13.90
2006,09,26,02,40,13.90
2006,09,26,02,41,13.90
2006,09,26,02,42,13.90
2006,09,26,02,43,13.90
2006,09,26,02,44,13.90
2006,09,26,02,45,14.00
2006,09,26,02,46,14.00
2006,09,26,02,47,14.00
2006,09,26,02,48,14.00
2006,09,26,02,49,14.00
2006,09,26,02,50,14.10
2006,09,26,02,51,14.10
2006,09,26,02,52,14.10
2006,09,26,02,53,14.10
2006,09,26,02,54,14.20
2006,09,26,02,55,14.20
2006,09,26,02,56,14.20
2006,09,26,02,57,14.20
2006,09,26,02,58,14.20
2006,09,26,02,59,14.30
2006,09,26,03,00,14.30
2006,09,26,03,01,14.30
2006,09,26,03,02,14.30
2006,09,26,03,03,14.30
2006,09,26,03,04,14.30
2006,09,26,03,05,14.30
2006,09,26,03,06,14.30
2006,09,26,03,07,14.30
2006,09,26,03,08,14.30
2006,09,26,03,09,14.30
2006,09,26,03,10,14.30
2006,09,26,03,11,14.30
2006,09,26,03,12,14.30
2006,09,26,03,13,14.30
2006,09,26,03,14,14.30
2006,09,26,03,15,14.30
2006,09,26,03,16,14.30
2006,09,26,03,17,14.40
2006,09,26,03,18,14.40
2006,09,26,03,19,14.40
2006,09,26,03,20,14.40
2006,09,26,03,21,14.40
2006,09,26,03,22,14.50
2006,09,26,03,23,14.50
2006,09,26,03,24,14.50
2006,09,26,03,25,14.50
2006,09,26,03,26,14.50
2006,09,26,03,27,14.60
2006,09,26,03,28,14.60
2006,09,26,03,29,14.60
2006,09,26,03,30,14.60
2006,09,26,03,31,14.60
2006,09,26,03,32,14.70
2006,09,26,03,33,14.70
2006,09,26,03,34,14.80
2006,09,26,03,35,14.80
2006,09,26,03,36,14.80
2006,09,26,03,37,14.80
2006,09,26,03,38,14.80
2006,09,26,03,39,14.80
2006,09,26,03,40,14.90
2006,09,26,03,41,14.90
2006,09,26,03,42,14.90
2006,09,26,03,43,15.00
2006,09,26,03,44,15.10
2006,09,26,03,45,15.10
2006,09,26,03,46,15.20
2006,09,26,03,47,15.20
2006,09,26,03,48,15.20
2006,09,26,03,49,15.20
2006,09,26,03,50,15.30
2006,09,26,03,51,15.30
2006,09,26,03,52,15.20
2006,09,26,03,53,15.20
2006,09,26,03,54,15.20
2006,09,26,03,55,15.20
2006,09,26,03,56,15.20
2006,09,26,03,57,15.20
2006,09,26,03,58,15.20
2006,09,26,03,59,15.20
2006,09,26,04,00,15.20
2006,09,26,04,01,15.20
2006,09,26,04,02,15.30
2006,09,26,04,03,15.30
2006,09,26,04,04,15.30
2006,09,26,04,05,15.30
2006,09,26,04,06,15.30
2006,09,26,04,07,15.20
2006,09,26,04,08,15.20
2006,09,26,04,09,15.00
2006,09,26,04,10,14.80
2006,09,26,04,11,14.60
2006,09,26,04,12,14.40
2006,09,26,04,13,14.30
2006,09,26,04,14,14.20
2006,09,26,04,15,14.10
2006,09,26,04,16,14.10
2006,09,26,04,17,14.00
2006,09,26,04,18,14.00
2006,09,26,04,19,14.00
2006,09,26,04,20,14.00
2006,09,26,04,21,14.00
2006,09,26,04,22,14.00
2006,09,26,04,23,13.90
2006,09,26,04,24,13.90
2006,09,26,04,25,13.90
2006,09,26,04,26,13.90
2006,09,26,04,27,13.80
2006,09,26,04,28,13.80
2006,09,26,04,29,13.80
2006,09,26,04,30,13.80
2006,09,26,04,31,13.70
2006,09,26,04,32,13.70
2006,09,26,04,33,13.70
2006,09,26,04,34,13.70
2006,09,26,04,35,13.70
2006,09,26,04,36,13.70
2006,09,26,04,37,13.70
2006,09,26,04,38,13.70
2006,09,26,04,39,13.60
2006,09,26,04,40,13.60
2006,09,26,04,41,13.60
2006,09,26,04,42,13.60
2006,09,26,04,43,13.50
2006,09,26,04,44,13.50
2006,09,26,04,45,13.50
2006,09,26,04,46,13.40
2006,09,26,04,47,13.30
2006,09,26,04,48,13.30
2006,09,26,04,49,13.30
2006,09,26,04,50,13.30
2006,09,26,04,51,13.30
2006,09,26,04,52,13.30
2006,09,26,04,53,13.30
2006,09,26,04,54,13.20
2006,09,26,04,55,13.20
2006,09,26,04,56,13.20
2006,09,26,04,57,13.20
2006,09,26,04,58,13.20
2006,09,26,04,59,13.10
2006,09,26,05,00,13.10
2006,09,26,05,01,13.10
2006,09,26,05,02,13.10
2006,09,26,05,03,13.10
2006,09,26,05,04,13.10
2006,09,26,05,05,13.10
2006,09,26,05,06,13.10
2006,09,26,05,07,13.10
2006,09,26,05,08,13.10
2006,09,26,05,09,13.10
2006,09,26,05,10,13.00
2006,09,26,05,11,13.00
2006,09,26,05,12,13.00
2006,09,26,05,13,13.00
2006,09,26,05,14,13.00
2006,09,26,05,15,13.00
2006,09,26,05,16,13.00
2006,09,26,05,17,13.00
2006,09,26,05,18,13.00
2006,09,26,05,19,13.00
2006,09,26,05,20,12.90
2006,09,26,05,21,12.90
2006,09,26,05,22,13.00
2006,09,26,05,23,12.90
2006,09,26,05,24,12.90
2006,09,26,05,25,12.90
2006,09,26,05,26,12.90
2006,09,26,05,27,12.90
2006,09,26,05,28,13.00
2006,09,26,05,29,13.00
2006,09,26,05,30,13.00
2006,09,26,05,31,12.90
2006,09,26,05,32,12.90
2006,09,26,05,33,12.90
2006,09,26,05,34,12.90
2006,09,26,05,35,12.80
2006,09,26,05,36,12.80
2006,09,26,05,37,12.80
2006,09,26,05,38,12.80
2006,09,26,05,39,12.80
2006,09,26,05,40,12.80
2006,09,26,05,41,12.80
2006,09,26,05,42,12.80
2006,09,26,05,43,12.80
2006,09,26,05,44,12.80
2006,09,26,05,45,12.80
2006,09,26,05,46,12.80
2006,09,26,05,47,12.80
2006,09,26,05,48,12.80
2006,09,26,05,49,12.80
2006,09,26,05,50,12.80
2006,09,26,05,51,12.80
2006,09,26,05,52,12.80
2006,09,26,05,53,12.80
2006,09,26,05,54,12.80
2006,09,26,05,55,12.80
2006,09,26,05,56,12.70
2006,09,26,05,57,12.70
2006,09,26,05,58,12.70
2006,09,26,05,59,12.70
2006,09,26,06,00,12.70
2006,09,26,06,01,12.70
2006,09,26,06,02,12.80
2006,09,26,06,03,12.80
2006,09,26,06,04,12.80
2006,09,26,06,05,12.80
2006,09,26,06,06,12.80
2006,09,26,06,07,12.80
2006,09,26,06,08,12.80
2006,09,26,06,09,12.80
2006,09,26,06,10,12.80
2006,09,26,06,11,12.80
2006,09,26,06,12,12.80
2006,09,26,06,13,12.90
2006,09,26,06,14,12.90
2006,09,26,06,15,13.00
2006,09,26,06,16,13.00
2006,09,26,06,17,13.10
2006,09,26,06,18,13.10
2006,09,26,06,19,13.20
2006,09,26,06,20,13.20
2006,09,26,06,21,13.30
2006,09,26,06,22,13.30
2006,09,26,06,23,13.30
2006,09,26,06,24,13.40
2006,09,26,06,25,13.40
2006,09,26,06,26,13.40
2006,09,26,06,27,13.40
2006,09,26,06,28,13.40
2006,09,26,06,29,13.50
2006,09,26,06,30,13.50
2006,09,26,06,31,13.50
2006,09,26,06,32,13.60
2006,09,26,06,33,13.60
2006,09,26,06,34,13.60
2006,09,26,06,35,13.70
2006,09,26,06,36,13.70
2006,09,26,06,37,13.70
2006,09,26,06,38,13.70
2006,09,26,06,39,13.70
2006,09,26,06,40,13.70
2006,09,26,06,41,13.70
2006,09,26,06,42,13.70
2006,09,26,06,43,13.70
2006,09,26,06,44,13.70
2006,09,26,06,45,13.70
2006,09,26,06,46,13.70
2006,09,26,06,47,13.70
2006,09,26,06,48,13.70
2006,09,26,06,49,13.70
2006,09,26,06,50,13.70
2006,09,26,06,51,13.70
2006,09,26,06,52,13.70
2006,09,26,06,53,13.70
2006,09,26,06,54,13.70
2006,09,26,06,55,13.70
2006,09,26,06,56,13.70
2006,09,26,06,57,13.70
2006,09,26,06,58,13.70
2006,09,26,06,59,13.70
2006,09,26,07,00,13.80
2006,09,26,07,01,13.80
2006,09,26,07,02,13.80
2006,09,26,07,03,13.80
2006,09,26,07,04,13.90
2006,09,26,07,05,13.90
2006,09,26,07,06,13.90
2006,09,26,07,07,13.90
2006,09,26,07,08,13.90
2006,09,26,07,09,14.00
2006,09,26,07,10,14.00
2006,09,26,07,11,14.00
2006,09,26,07,12,14.00
2006,09,26,07,13,14.00
2006,09,26,07,14,14.10
2006,09,26,07,15,14.10
2006,09,26,07,16,14.20
2006,09,26,07,17,14.20
2006,09,26,07,18,14.20
2006,09,26,07,19,14.30
2006,09,26,07,20,14.30
2006,09,26,07,21,14.30
2006,09,26,07,22,14.40
2006,09,26,07,23,14.50
2006,09,26,07,24,14.50
2006,09,26,07,25,14.60
2006,09,26,07,26,14.60
2006,09,26,07,27,14.70
2006,09,26,07,28,14.80
2006,09,26,07,29,14.80
2006,09,26,07,30,14.90
2006,09,26,07,31,14.90
2006,09,26,07,32,15.00
2006,09,26,07,33,15.00
2006,09,26,07,34,15.10
2006,09,26,07,35,15.10
2006,09,26,07,36,15.20
2006,09,26,07,37,15.20
2006,09,26,07,38,15.30
2006,09,26,07,39,15.30
2006,09,26,07,40,15.30
2006,09,26,07,41,15.40
2006,09,26,07,42,15.50
2006,09,26,07,43,15.50
2006,09,26,07,44,15.60
2006,09,26,07,45,15.60
2006,09,26,07,46,15.70
2006,09,26,07,47,15.70
2006,09,26,07,48,15.80
2006,09,26,07,49,15.80
2006,09,26,07,50,15.80
2006,09,26,07,51,15.90
2006,09,26,07,52,16.10
2006,09,26,07,53,16.10
2006,09,26,07,54,16.20
2006,09,26,07,55,16.20
2006,09,26,07,56,16.30
2006,09,26,07,57,16.40
2006,09,26,07,58,16.40
2006,09,26,07,59,16.40
2006,09,26,08,00,16.50
2006,09,26,08,01,16.60
2006,09,26,08,02,16.70
2006,09,26,08,03,16.70
2006,09,26,08,04,16.80
2006,09,26,08,05,16.80
2006,09,26,08,06,16.80
2006,09,26,08,07,16.90
2006,09,26,08,08,17.00
2006,09,26,08,09,17.10
2006,09,26,08,10,17.20
2006,09,26,08,11,17.20
2006,09,26,08,12,17.20
2006,09,26,08,13,17.20
2006,09,26,08,14,17.10
2006,09,26,08,15,17.00
2006,09,26,08,16,17.00
2006,09,26,08,17,17.00
2006,09,26,08,18,17.00
2006,09,26,08,19,17.00
2006,09,26,08,20,17.00
2006,09,26,08,21,16.90
2006,09,26,08,22,16.90
2006,09,26,08,23,16.90
2006,09,26,08,24,16.90
2006,09,26,08,25,17.00
2006,09,26,08,26,16.90
2006,09,26,08,27,17.00
2006,09,26,08,28,17.00
2006,09,26,08,29,16.90
2006,09,26,08,30,16.90
2006,09,26,08,31,16.80
2006,09,26,08,32,16.80
2006,09,26,08,33,16.80
2006,09,26,08,34,16.80
2006,09,26,08,35,16.70
2006,09,26,08,36,16.70
2006,09,26,08,37,16.70
2006,09,26,08,38,16.70
2006,09,26,08,39,16.70
2006,09,26,08,40,16.70
2006,09,26,08,41,16.70
2006,09,26,08,42,16.70
2006,09,26,08,43,16.60
2006,09,26,08,44,16.60
2006,09,26,08,45,16.50
2006,09,26,08,46,16.50
2006,09,26,08,47,16.60
2006,09,26,08,48,16.50
2006,09,26,08,49,16.40
2006,09,26,08,50,16.40
2006,09,26,08,51,16.40
2006,09,26,08,52,16.40
2006,09,26,08,53,16.40
2006,09,26,08,54,16.40
2006,09,26,08,55,16.40
2006,09,26,08,56,16.40
2006,09,26,08,57,16.40
2006,09,26,08,58,16.40
2006,09,26,08,59,16.40
2006,09,26,09,00,16.40
2006,09,26,09,01,16.40
2006,09,26,09,02,16.40
2006,09,26,09,03,16.40
2006,09,26,09,04,16.40
2006,09,26,09,05,16.40
2006,09,26,09,06,16.60
2006,09,26,09,07,16.60
2006,09,26,09,08,16.60
2006,09,26,09,09,16.60
2006,09,26,09,10,16.50
2006,09,26,09,11,16.40
2006,09,26,09,12,16.40
2006,09,26,09,13,16.30
2006,09,26,09,14,16.30
2006,09,26,09,15,16.30
2006,09,26,09,16,16.40
2006,09,26,09,17,16.40
2006,09,26,09,18,16.50
2006,09,26,09,19,16.60
2006,09,26,09,20,16.70
2006,09,26,09,21,16.70
2006,09,26,09,22,16.70
2006,09,26,09,23,16.70
2006,09,26,09,24,16.60
2006,09,26,09,25,16.60
2006,09,26,09,26,16.60
2006,09,26,09,27,16.60
2006,09,26,09,28,16.60
2006,09,26,09,29,16.70
2006,09,26,09,30,16.70
2006,09,26,09,31,16.70
2006,09,26,09,32,16.70
2006,09,26,09,33,16.70
2006,09,26,09,34,16.70
2006,09,26,09,35,16.70
2006,09,26,09,36,16.70
2006,09,26,09,37,16.60
2006,09,26,09,38,16.40
2006,09,26,09,39,16.40
2006,09,26,09,40,16.40
2006,09,26,09,41,16.40
2006,09,26,09,42,16.40
2006,09,26,09,43,16.40
2006,09,26,09,44,16.50
2006,09,26,09,45,16.60
2006,09,26,09,46,16.70
2006,09,26,09,47,16.70
2006,09,26,09,48,16.60
2006,09,26,09,49,16.60
2006,09,26,09,50,16.60
2006,09,26,09,51,16.60
2006,09,26,09,52,16.60
2006,09,26,09,53,16.50
2006,09,26,09,54,16.40
2006,09,26,09,55,16.40
2006,09,26,09,56,16.60
2006,09,26,09,57,16.60
2006,09,26,09,58,16.70
2006,09,26,09,59,16.70
2006,09,26,10,00,16.80
2006,09,26,10,01,16.90
2006,09,26,10,02,17.00
2006,09,26,10,03,17.00
2006,09,26,10,04,17.10
2006,09,26,10,05,17.20
2006,09,26,10,06,17.30
2006,09,26,10,07,17.30
2006,09,26,10,08,17.30
2006,09,26,10,09,17.30
2006,09,26,10,10,17.30
2006,09,26,10,11,17.30
2006,09,26,10,12,17.30
2006,09,26,10,13,17.30
2006,09,26,10,14,17.30
2006,09,26,10,15,17.30
2006,09,26,10,16,17.30
2006,09,26,10,17,17.30
2006,09,26,10,18,17.20
2006,09,26,10,19,17.10
2006,09,26,10,20,17.00
2006,09,26,10,21,17.00
2006,09,26,10,22,17.00
2006,09,26,10,23,17.00
2006,09,26,10,24,17.10
2006,09,26,10,25,17.10
2006,09,26,10,26,17.00
2006,09,26,10,27,17.00
2006,09,26,10,28,17.00
2006,09,26,10,29,17.00
2006,09,26,10,30,17.00
2006,09,26,10,31,17.00
2006,09,26,10,32,16.90
2006,09,26,10,33,16.90
2006,09,26,10,34,16.80
2006,09,26,10,35,16.80
2006,09,26,10,36,16.90
2006,09,26,10,37,16.90
2006,09,26,10,38,16.90
2006,09,26,10,39,17.00
2006,09,26,10,40,16.90
2006,09,26,10,41,16.90
2006,09,26,10,42,17.00
2006,09,26,10,43,17.10
2006,09,26,10,44,17.20
2006,09,26,10,45,17.20
2006,09,26,10,46,17.20
2006,09,26,10,47,17.10
2006,09,26,10,48,17.10
2006,09,26,10,49,17.00
2006,09,26,10,50,16.90
2006,09,26,10,51,16.80
2006,09,26,10,52,16.80
2006,09,26,10,53,16.80
2006,09,26,10,54,16.80
2006,09,26,10,55,16.70
2006,09,26,10,56,16.70
2006,09,26,10,57,16.60
2006,09,26,10,58,16.50
2006,09,26,10,59,16.40
2006,09,26,11,00,16.50
2006,09,26,11,01,16.60
2006,09,26,11,02,16.60
2006,09,26,11,03,16.70
2006,09,26,11,04,16.70
2006,09,26,11,05,16.90
2006,09,26,11,06,16.90
2006,09,26,11,07,16.90
2006,09,26,11,08,16.80
2006,09,26,11,09,16.80
2006,09,26,11,10,16.70
2006,09,26,11,11,16.80
2006,09,26,11,12,16.80
2006,09,26,11,13,16.80
2006,09,26,11,14,16.70
2006,09,26,11,15,16.70
2006,09,26,11,16,16.70
2006,09,26,11,17,16.70
2006,09,26,11,18,16.70
2006,09,26,11,19,16.70
2006,09,26,11,20,16.70
2006,09,26,11,21,16.60
2006,09,26,11,22,16.60
2006,09,26,11,23,16.70
2006,09,26,11,24,16.80
2006,09,26,11,25,16.80
2006,09,26,11,26,16.70
2006,09,26,11,27,16.70
2006,09,26,11,28,16.70
2006,09,26,11,29,16.60
2006,09,26,11,30,16.40
2006,09,26,11,31,16.20
2006,09,26,11,32,16.20
2006,09,26,11,33,16.30
2006,09,26,11,34,16.30
2006,09,26,11,35,16.30
2006,09,26,11,36,16.20
2006,09,26,11,37,16.20
2006,09,26,11,38,16.30
2006,09,26,11,39,16.40
2006,09,26,11,40,16.50
2006,09,26,11,41,16.70
2006,09,26,11,42,16.70
2006,09,26,11,43,16.80
2006,09,26,11,44,16.90
2006,09,26,11,45,17.10
2006,09,26,11,46,17.20
2006,09,26,11,47,17.00
2006,09,26,11,48,16.90
2006,09,26,11,49,16.90
2006,09,26,11,50,17.00
2006,09,26,11,51,17.10
2006,09,26,11,52,17.10
2006,09,26,11,53,17.30
2006,09,26,11,54,17.30
2006,09,26,11,55,17.30
2006,09,26,11,56,17.30
2006,09,26,11,57,17.30
2006,09,26,11,58,17.30
2006,09,26,11,59,17.30
2006,09,26,12,00,17.30
2006,09,26,12,01,17.30
2006,09,26,12,02,17.30
2006,09,26,12,03,17.30
2006,09,26,12,04,17.30
2006,09,26,12,05,17.30
2006,09,26,12,06,17.30
2006,09,26,12,07,17.20
2006,09,26,12,08,17.20
2006,09,26,12,09,17.20
2006,09,26,12,10,17.20
2006,09,26,12,11,17.30
2006,09,26,12,12,17.30
2006,09,26,12,13,17.30
2006,09,26,12,14,17.20
2006,09,26,12,15,17.30
2006,09,26,12,16,17.30
2006,09,26,12,17,17.30
2006,09,26,12,18,17.30
2006,09,26,12,19,17.30
2006,09,26,12,20,17.30
2006,09,26,12,21,17.30
2006,09,26,12,22,17.30
2006,09,26,12,23,17.20
2006,09,26,12,24,17.20
2006,09,26,12,25,17.20
2006,09,26,12,26,17.20
2006,09,26,12,27,17.30
2006,09,26,12,28,17.30
2006,09,26,12,29,17.30
2006,09,26,12,30,17.30
2006,09,26,12,31,17.30
2006,09,26,12,32,17.30
2006,09,26,12,33,17.40
2006,09,26,12,34,17.40
2006,09,26,12,35,17.30
2006,09,26,12,36,17.30
2006,09,26,12,37,17.30
2006,09,26,12,38,17.40
2006,09,26,12,39,17.40
2006,09,26,12,40,17.40
2006,09,26,12,41,17.50
2006,09,26,12,42,17.50
2006,09,26,12,43,17.60
2006,09,26,12,44,17.60
2006,09,26,12,45,17.60
2006,09,26,12,46,17.50
2006,09,26,12,47,17.50
2006,09,26,12,48,17.40
2006,09,26,12,49,17.40
2006,09,26,12,50,17.40
2006,09,26,12,51,17.40
2006,09,26,12,52,17.50
2006,09,26,12,53,17.50
2006,09,26,12,54,17.60
2006,09,26,12,55,17.60
2006,09,26,12,56,17.60
2006,09,26,12,57,17.60
2006,09,26,12,58,17.70
2006,09,26,12,59,17.60
2006,09,26,13,00,17.60
2006,09,26,13,01,17.60
2006,09,26,13,02,17.70
2006,09,26,13,03,17.70
2006,09,26,13,04,17.70
2006,09,26,13,05,17.80
2006,09,26,13,06,17.90
2006,09,26,13,07,18.00
2006,09,26,13,08,18.20
2006,09,26,13,09,18.20
2006,09,26,13,10,18.20
2006,09,26,13,11,18.20
2006,09,26,13,12,18.20
2006,09,26,13,13,18.20
2006,09,26,13,14,18.20
2006,09,26,13,15,18.10
2006,09,26,13,16,18.00
2006,09,26,13,17,17.90
2006,09,26,13,18,17.90
2006,09,26,13,19,18.00
2006,09,26,13,20,18.10
2006,09,26,13,21,18.10
2006,09,26,13,22,18.10
2006,09,26,13,23,18.20
2006,09,26,13,24,18.20
2006,09,26,13,25,18.20
2006,09,26,13,26,18.20
2006,09,26,13,27,18.20
2006,09,26,13,28,18.30
2006,09,26,13,29,18.20
2006,09,26,13,30,18.20
2006,09,26,13,31,18.20
2006,09,26,13,32,18.20
2006,09,26,13,33,18.30
2006,09,26,13,34,18.40
2006,09,26,13,35,18.40
2006,09,26,13,36,18.40
2006,09,26,13,37,18.40
2006,09,26,13,38,18.50
2006,09,26,13,39,18.50
2006,09,26,13,40,18.60
2006,09,26,13,41,18.70
2006,09,26,13,42,18.80
2006,09,26,13,43,18.90
2006,09,26,13,44,19.10
2006,09,26,13,45,19.10
2006,09,26,13,46,19.30
2006,09,26,13,47,19.40
2006,09,26,13,48,19.40
2006,09,26,13,49,19.40
2006,09,26,13,50,19.50
2006,09,26,13,51,19.50
2006,09,26,13,52,19.50
2006,09,26,13,53,19.50
2006,09,26,13,54,19.60
2006,09,26,13,55,19.60
2006,09,26,13,56,19.60
2006,09,26,13,57,19.60
2006,09,26,13,58,19.60
2006,09,26,13,59,19.60
2006,09,26,14,00,19.70
2006,09,26,14,01,19.70
2006,09,26,14,02,19.60
2006,09,26,14,03,19.60
2006,09,26,14,04,19.60
2006,09,26,14,05,19.70
2006,09,26,14,06,19.70
2006,09,26,14,07,19.70
2006,09,26,14,08,19.70
2006,09,26,14,09,19.70
2006,09,26,14,10,19.60
2006,09,26,14,11,19.50
2006,09,26,14,12,19.40
2006,09,26,14,13,19.40
2006,09,26,14,14,19.40
2006,09,26,14,15,19.30
2006,09,26,14,16,19.20
2006,09,26,14,17,19.10
2006,09,26,14,18,19.00
2006,09,26,14,19,18.90
2006,09,26,14,20,18.80
2006,09,26,14,21,18.70
2006,09,26,14,22,18.60
2006,09,26,14,23,18.50
2006,09,26,14,24,18.40
2006,09,26,14,25,18.30
2006,09,26,14,26,18.30
2006,09,26,14,27,18.20
2006,09,26,14,28,18.30
2006,09,26,14,29,18.30
2006,09,26,14,30,18.40
2006,09,26,14,31,18.40
2006,09,26,14,32,18.40
2006,09,26,14,33,18.30
2006,09,26,14,34,18.30
2006,09,26,14,35,18.20
2006,09,26,14,36,18.20
2006,09,26,14,37,18.20
2006,09,26,14,38,18.20
2006,09,26,14,39,18.10
2006,09,26,14,40,18.10
2006,09,26,14,41,18.20
2006,09,26,14,42,18.20
2006,09,26,14,43,18.20
2006,09,26,14,44,18.20
2006,09,26,14,45,18.20
2006,09,26,14,46,18.20
2006,09,26,14,47,18.20
2006,09,26,14,48,18.20
2006,09,26,14,49,18.20
2006,09,26,14,50,18.20
2006,09,26,14,51,18.30
2006,09,26,14,52,18.30
2006,09,26,14,53,18.30
2006,09,26,14,54,18.30
2006,09,26,14,55,18.30
2006,09,26,14,56,18.20
2006,09,26,14,57,18.20
2006,09,26,14,58,18.20
2006,09,26,14,59,18.30
2006,09,26,15,00,18.40
2006,09,26,15,01,18.40
2006,09,26,15,02,18.50
2006,09,26,15,03,18.50
2006,09,26,15,04,18.50
2006,09,26,15,05,18.50
2006,09,26,15,06,18.50
2006,09,26,15,07,18.40
2006,09,26,15,08,18.30
2006,09,26,15,09,18.30
2006,09,26,15,10,18.30
2006,09,26,15,11,18.30
2006,09,26,15,12,18.30
2006,09,26,15,13,18.20
2006,09,26,15,14,18.20
2006,09,26,15,15,18.20
2006,09,26,15,16,18.20
2006,09,26,15,17,18.20
2006,09,26,15,18,18.20
2006,09,26,15,19,18.20
2006,09,26,15,20,18.20
2006,09,26,15,21,18.20
2006,09,26,15,22,18.20
2006,09,26,15,23,18.20
2006,09,26,15,24,18.30
2006,09,26,15,25,18.40
2006,09,26,15,26,18.50
2006,09,26,15,27,18.50
2006,09,26,15,28,18.60
2006,09,26,15,29,18.70
2006,09,26,15,30,18.70
2006,09,26,15,31,18.60
2006,09,26,15,32,18.50
2006,09,26,15,33,18.40
2006,09,26,15,34,18.40
2006,09,26,15,35,18.30
2006,09,26,15,36,18.20
2006,09,26,15,37,18.20
2006,09,26,15,38,18.20
2006,09,26,15,39,18.30
2006,09,26,15,40,18.30
2006,09,26,15,41,18.30
2006,09,26,15,42,18.30
2006,09,26,15,43,18.30
2006,09,26,15,44,18.30
2006,09,26,15,45,18.40
2006,09,26,15,46,18.40
2006,09,26,15,47,18.50
2006,09,26,15,48,18.50
2006,09,26,15,49,18.60
2006,09,26,15,50,18.60
2006,09,26,15,51,18.70
2006,09,26,15,52,18.70
2006,09,26,15,53,18.70
2006,09,26,15,54,18.70
2006,09,26,15,55,18.80
2006,09,26,15,56,18.80
2006,09,26,15,57,18.90
2006,09,26,15,58,18.90
2006,09,26,15,59,18.90
2006,09,26,16,00,18.90
2006,09,26,16,01,19.00
2006,09,26,16,02,19.10
2006,09,26,16,03,19.10
2006,09,26,16,04,19.10
2006,09,26,16,05,19.10
2006,09,26,16,06,19.10
2006,09,26,16,07,19.10
2006,09,26,16,08,19.10
2006,09,26,16,09,19.10
2006,09,26,16,10,19.10
2006,09,26,16,11,19.10
2006,09,26,16,12,19.20
2006,09,26,16,13,19.20
2006,09,26,16,14,19.20
2006,09,26,16,15,19.30
2006,09,26,16,16,19.30
2006,09,26,16,17,19.40
2006,09,26,16,18,19.40
2006,09,26,16,19,19.40
2006,09,26,16,20,19.50
2006,09,26,16,21,19.50
2006,09,26,16,22,19.50
2006,09,26,16,23,19.50
2006,09,26,16,24,19.40
2006,09,26,16,25,19.40
2006,09,26,16,26,19.40
2006,09,26,16,27,19.30
2006,09,26,16,28,19.40
2006,09,26,16,29,19.40
2006,09,26,16,30,19.40
2006,09,26,16,31,19.40
2006,09,26,16,32,19.40
2006,09,26,16,33,19.40
2006,09,26,16,34,19.40
2006,09,26,16,35,19.40
2006,09,26,16,36,19.40
2006,09,26,16,37,19.40
2006,09,26,16,38,19.40
2006,09,26,16,39,19.40
2006,09,26,16,40,19.40
2006,09,26,16,41,19.30
2006,09,26,16,42,19.40
2006,09,26,16,43,19.40
2006,09,26,16,44,19.40
2006,09,26,16,45,19.40
2006,09,26,16,46,19.30
2006,09,26,16,47,19.30
2006,09,26,16,48,19.30
2006,09,26,16,49,19.20
2006,09,26,16,50,19.20
2006,09,26,16,51,19.10
2006,09,26,16,52,19.10
2006,09,26,16,53,19.10
2006,09,26,16,54,19.10
2006,09,26,16,55,19.00
2006,09,26,16,56,18.90
2006,09,26,16,57,18.90
2006,09,26,16,58,18.90
2006,09,26,16,59,18.90
2006,09,26,17,00,18.90
2006,09,26,17,01,18.90
2006,09,26,17,02,18.90
2006,09,26,17,03,18.90
2006,09,26,17,04,18.90
2006,09,26,17,05,18.90
2006,09,26,17,06,18.90
2006,09,26,17,07,18.90
2006,09,26,17,08,18.90
2006,09,26,17,09,18.90
2006,09,26,17,10,18.90
2006,09,26,17,11,18.80
2006,09,26,17,12,18.80
2006,09,26,17,13,18.80
2006,09,26,17,14,18.80
2006,09,26,17,15,18.80
2006,09,26,17,16,18.80
2006,09,26,17,17,18.80
2006,09,26,17,18,18.80
2006,09,26,17,19,18.80